When you browse on this site, cookies collect data to enhance your experience and personalize the content and advertising you see.
Visit our Privacy Policy to learn more. By continuing to use the site, you agree to this use of cookies and data.
  • In Deutschland
  • Länderverzeichnis
  • Für 7 Tage
  • Wassertemperatur
  • Wetterkarte
  • Widgets
  • user-avatar
    Anmelden

    Stündliche Wetter Wuppertal

    Heute, 15 Oktober, Dienstag

    Zeit Temperatur Niederschläge Wind Luftdruck Luftfeuchtigkeit
    00:00 +17°C° 0 mm 3 m/S 739 mmHg 72%
    01:00 +17°C° 0 mm 2 m/S 739 mmHg 74%
    02:00 +16°C° 0 mm 2 m/S 738 mmHg 77%
    03:00 +16°C° 0 mm 2 m/S 738 mmHg 80%
    04:00 +16°C° 0 mm 2 m/S 738 mmHg 81%
    05:00 +15°C° 0 mm 2 m/S 738 mmHg 82%
    06:00 +15°C° 0 mm 2 m/S 738 mmHg 82%
    07:00 +16°C° 0 mm 2 m/S 738 mmHg 77%
    08:00 +18°C° 0 mm 3 m/S 738 mmHg 72%
    09:00 +19°C° 0 mm 3 m/S 738 mmHg 67%
    10:00 +20°C° 0 mm 3 m/S 738 mmHg 66%
    11:00 +20°C° 0 mm 3 m/S 738 mmHg 65%
    12:00 +21°C° 0 mm 2 m/S 737 mmHg 63%
    13:00 +19°C° 0.4 mm 3 m/S 737 mmHg 70%
    14:00 +18°C° 0.4 mm 3 m/S 737 mmHg 78%
    15:00 +16°C° 0.4 mm 3 m/S 737 mmHg 85%
    16:00 +14°C° 2.5 mm 3 m/S 737 mmHg 87%
    17:00 +14°C° 2.5 mm 3 m/S 737 mmHg 89%
    18:00 +13°C° 2.5 mm 3 m/S 737 mmHg 91%
    19:00 +13°C° 2.6 mm 4 m/S 738 mmHg 90%
    20:00 +12°C° 2.6 mm 4 m/S 738 mmHg 89%
    21:00 +12°C° 2.6 mm 4 m/S 739 mmHg 88%
    22:00 +12°C° 0.8 mm 4 m/S 739 mmHg 86%
    23:00 +11°C° 0.8 mm 4 m/S 739 mmHg 84%

    Morgen, 16 Oktober, Mittwoch

    Zeit Temperatur Niederschläge Wind Luftdruck Luftfeuchtigkeit
    00:00 +11°C° 0.8 mm 3 m/S 740 mmHg 82%
    01:00 +11°C° 0.1 mm 4 m/S 740 mmHg 82%
    02:00 +11°C° 0.1 mm 4 m/S 740 mmHg 83%
    03:00 +10°C° 0.1 mm 4 m/S 740 mmHg 83%
    04:00 +10°C° 0 mm 4 m/S 740 mmHg 83%
    05:00 +10°C° 0 mm 4 m/S 740 mmHg 82%
    06:00 +10°C° 0 mm 4 m/S 740 mmHg 82%
    07:00 +10°C° 0 mm 4 m/S 740 mmHg 80%
    08:00 +11°C° 0 mm 4 m/S 740 mmHg 79%
    09:00 +12°C° 0 mm 4 m/S 741 mmHg 78%
    10:00 +12°C° 0 mm 5 m/S 741 mmHg 76%
    11:00 +13°C° 0 mm 5 m/S 740 mmHg 74%
    12:00 +14°C° 0 mm 5 m/S 740 mmHg 73%
    13:00 +13°C° 0.4 mm 4 m/S 740 mmHg 77%
    14:00 +13°C° 0.4 mm 4 m/S 740 mmHg 82%
    15:00 +12°C° 0.4 mm 4 m/S 740 mmHg 86%
    16:00 +12°C° 0.3 mm 4 m/S 740 mmHg 85%
    17:00 +12°C° 0.3 mm 3 m/S 740 mmHg 84%
    18:00 +12°C° 0.3 mm 3 m/S 740 mmHg 82%
    19:00 +12°C° 0.2 mm 3 m/S 740 mmHg 82%
    20:00 +12°C° 0.2 mm 3 m/S 740 mmHg 82%
    21:00 +12°C° 0.2 mm 4 m/S 740 mmHg 81%
    22:00 +12°C° 0.6 mm 4 m/S 740 mmHg 83%
    23:00 +12°C° 0.6 mm 5 m/S 740 mmHg 85%

    übermorgen, 17 Oktober, Donnerstag

    Zeit Temperatur Niederschläge Wind Luftdruck Luftfeuchtigkeit
    00:00 +12°C° 0.6 mm 5 m/S 740 mmHg 87%
    01:00 +12°C° 0.7 mm 5 m/S 740 mmHg 87%
    02:00 +12°C° 0.7 mm 5 m/S 740 mmHg 87%
    03:00 +12°C° 0.7 mm 4 m/S 740 mmHg 87%
    04:00 +12°C° 0.3 mm 4 m/S 740 mmHg 88%
    05:00 +12°C° 0.3 mm 4 m/S 741 mmHg 88%
    06:00 +12°C° 0.3 mm 3 m/S 741 mmHg 89%
    07:00 +12°C° 0.3 mm 4 m/S 741 mmHg 88%
    08:00 +13°C° 0.3 mm 4 m/S 742 mmHg 87%
    09:00 +13°C° 0.3 mm 4 m/S 742 mmHg 86%
    10:00 +14°C° 0.1 mm 4 m/S 742 mmHg 80%
    11:00 +14°C° 0.1 mm 4 m/S 742 mmHg 74%
    12:00 +15°C° 0.1 mm 4 m/S 743 mmHg 67%
    13:00 +14°C° 0.1 mm 4 m/S 743 mmHg 68%
    14:00 +14°C° 0.1 mm 3 m/S 743 mmHg 69%
    15:00 +14°C° 0.1 mm 3 m/S 743 mmHg 70%
    16:00 +13°C° 0 mm 3 m/S 743 mmHg 69%
    17:00 +12°C° 0 mm 3 m/S 743 mmHg 69%
    18:00 +12°C° 0 mm 3 m/S 744 mmHg 68%
    19:00 +12°C° 0 mm 2 m/S 744 mmHg 72%
    20:00 +10°C° 0 mm 2 m/S 744 mmHg 75%
    21:00 +10°C° 0 mm 2 m/S 744 mmHg 79%
    22:00 +10°C° 0 mm 2 m/S 744 mmHg 81%
    23:00 +10°C° 0 mm 2 m/S 744 mmHg 83%

    18 Oktober, Freitag

    Zeit Temperatur Niederschläge Wind Luftdruck Luftfeuchtigkeit
    00:00 +9°C° 0 mm 2 m/S 744 mmHg 85%
    01:00 +10°C° 0 mm 3 m/S 743 mmHg 85%
    02:00 +10°C° 0 mm 3 m/S 743 mmHg 85%
    03:00 +11°C° 0 mm 3 m/S 743 mmHg 85%
    04:00 +11°C° 0.6 mm 3 m/S 742 mmHg 87%
    05:00 +11°C° 0.6 mm 4 m/S 742 mmHg 89%
    06:00 +12°C° 0.6 mm 4 m/S 742 mmHg 91%
    07:00 +12°C° 0.2 mm 4 m/S 742 mmHg 89%
    08:00 +13°C° 0.2 mm 4 m/S 742 mmHg 87%
    09:00 +13°C° 0.2 mm 4 m/S 742 mmHg 85%
    10:00 +14°C° 0.3 mm 4 m/S 742 mmHg 78%
    11:00 +14°C° 0.3 mm 5 m/S 743 mmHg 71%
    12:00 +15°C° 0.3 mm 5 m/S 743 mmHg 64%
    13:00 +15°C° 0 mm 5 m/S 743 mmHg 63%
    14:00 +15°C° 0 mm 4 m/S 743 mmHg 61%
    15:00 +15°C° 0 mm 4 m/S 743 mmHg 60%
    16:00 +14°C° 0 mm 3 m/S 743 mmHg 65%
    17:00 +12°C° 0 mm 3 m/S 743 mmHg 70%
    18:00 +12°C° 0 mm 2 m/S 743 mmHg 75%
    19:00 +12°C° 0 mm 2 m/S 743 mmHg 76%
    20:00 +12°C° 0 mm 2 m/S 743 mmHg 78%
    21:00 +10°C° 0 mm 3 m/S 744 mmHg 79%
    22:00 +10°C° 0 mm 3 m/S 743 mmHg 81%
    23:00 +10°C° 0 mm 3 m/S 743 mmHg 82%

    19 Oktober, Samstag

    Zeit Temperatur Niederschläge Wind Luftdruck Luftfeuchtigkeit
    00:00 +10°C° 0 mm 3 m/S 743 mmHg 84%
    01:00 +9°C° 0 mm 3 m/S 743 mmHg 84%
    02:00 +9°C° 0 mm 3 m/S 743 mmHg 83%
    03:00 +9°C° 0 mm 3 m/S 742 mmHg 83%
    04:00 +9°C° 0 mm 3 m/S 742 mmHg 83%
    05:00 +9°C° 0 mm 3 m/S 742 mmHg 84%
    06:00 +9°C° 0 mm 3 m/S 742 mmHg 85%
    07:00 +11°C° 0 mm 4 m/S 742 mmHg 81%
    08:00 +12°C° 0 mm 4 m/S 742 mmHg 78%
    09:00 +13°C° 0 mm 4 m/S 742 mmHg 75%
    10:00 +14°C° 0 mm 4 m/S 741 mmHg 71%
    11:00 +14°C° 0 mm 4 m/S 741 mmHg 67%
    12:00 +15°C° 0 mm 4 m/S 741 mmHg 64%
    13:00 +15°C° 0 mm 4 m/S 740 mmHg 66%
    14:00 +16°C° 0 mm 3 m/S 740 mmHg 68%
    15:00 +16°C° 0 mm 3 m/S 739 mmHg 70%
    16:00 +15°C° 0.1 mm 2 m/S 739 mmHg 74%
    17:00 +14°C° 0.1 mm 2 m/S 738 mmHg 79%
    18:00 +13°C° 0.1 mm 2 m/S 738 mmHg 83%
    19:00 +13°C° 2 mm 2 m/S 737 mmHg 86%
    20:00 +12°C° 2 mm 3 m/S 737 mmHg 88%
    21:00 +12°C° 2 mm 3 m/S 737 mmHg 91%
    22:00 +12°C° 0.9 mm 3 m/S 736 mmHg 91%
    23:00 +13°C° 0.9 mm 2 m/S 736 mmHg 91%

    20 Oktober, Sonntag

    Zeit Temperatur Niederschläge Wind Luftdruck Luftfeuchtigkeit
    00:00 +13°C° 0.9 mm 2 m/S 735 mmHg 90%
    01:00 +12°C° 0.1 mm 2 m/S 735 mmHg 89%
    02:00 +11°C° 0.1 mm 3 m/S 735 mmHg 88%
    03:00 +11°C° 0.1 mm 3 m/S 735 mmHg 87%
    04:00 +11°C° 0 mm 3 m/S 735 mmHg 86%
    05:00 +11°C° 0 mm 3 m/S 735 mmHg 86%
    06:00 +11°C° 0 mm 3 m/S 736 mmHg 86%
    07:00 +11°C° 0.1 mm 4 m/S 736 mmHg 84%
    08:00 +11°C° 0.1 mm 4 m/S 736 mmHg 83%
    09:00 +11°C° 0.1 mm 4 m/S 737 mmHg 81%
    10:00 +12°C° 0.1 mm 5 m/S 737 mmHg 74%
    11:00 +13°C° 0.1 mm 5 m/S 737 mmHg 68%
    12:00 +14°C° 0.1 mm 5 m/S 738 mmHg 61%
    13:00 +14°C° 0.1 mm 5 m/S 738 mmHg 61%
    14:00 +13°C° 0.1 mm 4 m/S 738 mmHg 62%
    15:00 +13°C° 0.1 mm 4 m/S 738 mmHg 62%
    16:00 +12°C° 0 mm 4 m/S 738 mmHg 67%
    17:00 +11°C° 0 mm 4 m/S 739 mmHg 71%
    18:00 +10°C° 0 mm 3 m/S 739 mmHg 75%
    19:00 +10°C° 0 mm 3 m/S 740 mmHg 76%
    20:00 +9°C° 0 mm 3 m/S 740 mmHg 78%
    21:00 +9°C° 0 mm 3 m/S 740 mmHg 79%
    22:00 +9°C° 0 mm 3 m/S 740 mmHg 79%
    23:00 +8°C° 0 mm 3 m/S 741 mmHg 80%
    Mehr zeigen